Skip Page Navigation
NASA JPL Caltech
NASA Logo - Jet Propulsion Laboratory + View the NASA Portal
+ Center for Near-Earth Object Studies
JPL Home Earth Solar System Stars & Galaxies Technology
JPL Solar System Dynamics
BODIES ORBITS EPHEMERIDES TOOLS PHYSICAL DATA DISCOVERY FAQ SITE MAP
IMPORTANT: The SSD Announcement email list is now available. Major changes are coming in the near future, including possible hostname and/or URL changes. To be notified of such changes, subscribe to this email list.

Please visit this page for more details.


JPL Small-Body Database Browser
Search: [ help ]  
441975 (2010 MX93)
Classification: Main-belt Asteroid          SPK-ID: 2441975
Ephemeris | Orbit Diagram | Orbital Elements | Mission Design | Physical Parameters | Discovery Circumstances | Close-Approach Data ]

[ show orbit diagram ]
Orbital Elements at Epoch 2458600.5 (2019-Apr-27.0) TDB
Reference: JPL 10 (heliocentric ecliptic J2000)
 Element Value Uncertainty (1-sigma)   Units 
e .08189324136938503 1.522e-07  
a 3.0795487874425 9.789e-08 au
q 2.827354555283674 4.6873e-07 au
i 17.59963192413088 1.8019e-05 deg
node 288.4584761936596 3.6003e-05 deg
peri 10.02034068969927 8.1181e-05 deg
M 270.6968796574396 8.0658e-05 deg
tp 2459090.158381874323
(2020-Aug-28.65838187)
0.00045407 TDB
period 1973.917784715364
5.40
9.4118e-05
2.577e-07
d
yr
n .1823784165620209 8.6959e-09 deg/d
Q 3.331743019601325 1.0591e-07 au
  Orbit Determination Parameters
   # obs. used (total)      77  
   data-arc span      4970 days (13.61 yr)  
   first obs. used      2004-06-16  
   last obs. used      2018-01-24  
   planetary ephem.      DE431  
   SB-pert. ephem.      SB431-N16  
   condition code      0  
   norm. resid. RMS      .46974  
   source      ORB  
   producer      Otto Matic  
   solution date      2018-Oct-04 12:16:50  

Additional Information
 Earth MOID = 1.8119 au 
 Jupiter MOID = 1.87329 au 
 T_jup = 3.151 
[ hide covariance matrix ]
Orbital Elements at Epoch 2457114.5 (2015-Apr-02.0) TDB
Reference: JPL 10 (heliocentric ecliptic J2000)
 Element Value Uncertainty (1-sigma)   Units 
e .08101564092487577 1.5228e-07  
q 2.831702892885387 4.684e-07 au
tp 2457118.194474735956
(2015-Apr-05.69447474)
0.00041599 TDB
node 288.4794001522274 3.6005e-05 deg
peri 10.47469561196496 8.1704e-05 deg
i 17.59537063574783 1.8016e-05 deg
  Orbit Determination Parameters
   # obs. used (total)      77  
   data-arc span      4970 days (13.61 yr)  
   first obs. used      2004-06-16  
   last obs. used      2018-01-24  
   planetary ephem.      DE431  
   SB-pert. ephem.      SB431-N16  
   condition code      0  
   norm. resid. RMS      .46974  
   source      ORB  
   producer      Otto Matic  
   solution date      2018-Oct-04 12:16:50  

Additional Information
 Jupiter MOID = 1.87329 au 
 T_jup = 3.151 
Orbit Covariance (6×6)
  e q tp node peri i
e 2.31892780019812E-14 -6.999308539909152E-14 1.028326748792515E-11 3.592024443899375E-14 2.117048207123501E-12 2.215723326694769E-14
q -6.999308539909152E-14 2.193955239949077E-13 -1.863069172628601E-11 -6.715653539639888E-14 -4.234180130040617E-12 -3.449996295971466E-14
tp 1.028326748792515E-11 -1.863069172628601E-11 1.730483860486189E-7 1.0661026860597E-10 3.060043398654891E-8 1.065592812810911E-10
node 3.592024443899375E-14 -6.715653539639888E-14 1.0661026860597E-10 1.296392762187479E-9 -1.215645283570972E-9 1.682771162419088E-10
peri 2.117048207123501E-12 -4.234180130040617E-12 3.060043398654891E-8 -1.215645283570972E-9 6.675469615805066E-9 -1.413182283978159E-10
i 2.215723326694769E-14 -3.449996295971466E-14 1.065592812810911E-10 1.682771162419088E-10 -1.413182283978159E-10 3.245629808794942E-10

Ephemeris | Orbit Diagram | Orbital Elements | Mission Design | Physical Parameters | Discovery Circumstances | Close-Approach Data ]

Physical Parameter Table
Parameter Symbol Value Units Sigma Reference Notes
absolute magnitude H 15.9   n/a MPO434640  
diameter diameter 4.050 km 0.201 urn:nasa:pds:neowise_diameters_albedos::2.0[mainbelt] (http://adsabs.harvard.edu/abs/2011ApJ...741...68M)  
geometric albedo albedo 0.118   0.015 urn:nasa:pds:neowise_diameters_albedos::2.0[mainbelt] (http://adsabs.harvard.edu/abs/2011ApJ...741...68M)  

441975 (2010 MX93)          Discovered 2006-Nov-27 by Mt. Lemmon Survey at Mount Lemmon
Reference: Last Updated: 2015-09-02

[ show close-approach data ]
Ephemeris | Orbit Diagram | Orbital Elements | Mission Design | Physical Parameters | Discovery Circumstances | Close-Approach Data ]
ABOUT SSD CREDITS/AWARDS PRIVACY/COPYRIGHT GLOSSARY LINKS
FirstGov 2019-Dec-07 09:39 UT
(server date/time)  
NASA Home Page
Site Manager:   Ryan S. Park
Webmaster  Alan B. Chamberlin